www.pogodaiklimat.ru

Погода и климат >> Архив погоды >> Пакистан >> Дера-Исмаил-Хан


ПОГОДА в Дера-Исмаил-Хане

  • Прогноз погоды в Дера-Исмаил-Хане
  • Монитор погоды в Дера-Исмаил-Хане

АРХИВ ПОГОДЫ в Дера-Исмаил-Хане

Время (UTC), дата Ветер
(напр.,м/с)
 
Видим.   Явления Облачность Т
(С)
Тd
(С)
f
(%)
Тe
(С)
Тes
(С)
Комфортность P
(гПа)
Po
(гПа)
Тmin
(С)
Tmax
(С)
R
(мм)
R24
(мм)
S
(см)
03 15.08 штиль 0 10 км ясно +29.5 +26.7 85 +46 +53 опасность
перегрева
1001.3 982.2 +27.1
06 15.08 штиль 0 10 км ясно +35.0 +28.3 68 +56 +81 опасность
перегрева
1001.1 982.3
09 15.08 штиль 0 10 км ясно +38.0 +28.7 59 +60 +82 опасность
перегрева
999.2 980.4
12 15.08 штиль 0 10 км ясно +38.0 +28.7 59 +60 +64 опасность
перегрева
997.2 978.8 +39.1
15 15.08 штиль 0 4000 м ясно +35.0 +28.3 68 +56 +56 опасность
перегрева
995.9 1000.0
18 15.08 штиль 0 4000 м ясно +32.0 +27.9 79 +52 +52 опасность
перегрева
998.8 979.7
21 15.08 штиль 0 4000 м ясно +31.0 +27.6 82 +50 +50 опасность
перегрева
999.4 1000.0
00 16.08 СВ 2 4000 м ясно +30.0 +27.3 85 +48 +48 опасность
перегрева
998.2 979.3
03 16.08 штиль 0 4000 м 10/5 1110 м
[Sc As op]
+31.0 +27.6 82 +50 +51 опасность
перегрева
999.1 980.1 +28.1
06 16.08 ЮВ 1 10 км 4/4 300 м
[Sc]
+36.0 +27.9 63 +56 +70 опасность
перегрева
998.7 980.0
09 16.08 Ю 1 10 км 3/3 1110 м
[Sc]
+38.0 +27.2 54 +56 +70 опасность
перегрева
996.6 1000.0
12 16.08 СВ 2 4000 м 9/4 1110 м
[Sc As op]
+32.0 +25.0 67 +46 +46 опасность
перегрева
995.6 976.7 +39.5
15 16.08 СЗ 1 4000 м дым 10/5 1110 м
[Sc As op]
+30.5 +21.7 59 +39 +39 очень
душно
996.9 1000.0
18 16.08 СВ 1 4000 м дым 10/4 1110 м
[Sc As op]
+30.0 +22.8 65 +40 +40 очень
душно
997.7 978.7
21 16.08 СЗ 1 4000 м дым {дождь} 10/4 1110 м
[Sc As op]
+29.0 +23.2 71 +39 +39 очень
душно
998.0 1000.0 0.0
00 17.08 СВ 1 4000 м дым {дождь} 10/4 1110 м
[Sc As op]
+28.0 +24.4 81 +39 +39 очень
душно
997.8 978.7
03 17.08 СВ 1 4000 м 10/5 1110 м
[Sc As op]
+28.0 +25.2 85 +41 +41 опасность
перегрева
999.6 980.5 +26.1
06 17.08 СЗ 2 10 км 8/4 1110 м
[Sc As op]
+31.0 +23.1 63 +41 +46 опасность
перегрева
1000.8 981.8
09 17.08 СВ 1 10 км ясно +34.0 +24.9 59 +47 +68 опасность
перегрева
999.7 1000.0
12 17.08 СЗ 1 10 км ясно +33.5 +25.1 62 +48 +51 опасность
перегрева
997.8 979.0 +35.0
15 17.08 штиль 0 4000 м 5/5 300 м
[Sc]
+30.0 +23.5 68 +41 +41 опасность
перегрева
998.6 979.7
18 17.08 штиль 0 4000 м 5/5 1200 м
[Sc]
+28.0 +23.7 77 +38 +38 очень
душно
1000.3 981.3
21 17.08 штиль 0 4000 м 5/5 1200 м
[Sc]
+27.0 +24.1 84 +37 +37 очень
душно
999.2 980.1
00 18.08 СВ 1 4000 м 10/5 1200 м
[Sc As op]
+26.0 +23.8 88 +36 +36 очень
душно
1000.0 980.8
03 18.08 СВ 1 10 км 10/5 300 м
[Sc As op]
+28.0 +25.2 85 +41 +41 опасность
перегрева
1001.2 982.1 +25.0
06 18.08 штиль 0 10 км 5/5 300 м
[Sc]
+33.0 +26.1 67 +49 +61 опасность
перегрева
1001.4 982.5
09 18.08 штиль 0 10 км ясно +37.0 +27.6 59 +56 +79 опасность
перегрева
999.9 981.3
12 18.08 ЮВ 1 10 км 10/5 1110 м
[Sc As op]
+37.0 +26.8 56 +54 +55 опасность
перегрева
998.1 979.6 +38.0
15 18.08 штиль 0 4000 м ясно +32.0 +24.2 63 +44 +44 опасность
перегрева
999.8 1000.0
18 18.08 СВ 12 1000 м гроза, ливневой дождь 10/5 1110 м
[Sc As op]
+22.0 +22.0 100 +29 +29 очень
душно
1006.3 986.7 12
21 18.08 СВ 6 4000 м 5/5 1110 м
[Sc As op]
+22.0 +22.0 100 +29 +29 очень
душно
1004.3 1000.0 8
00 19.08 штиль 0 4000 м 5/5 1110 м
[Sc]
+23.0 +20.7 87 +30 +30 очень
душно
1003.9 984.4
03 19.08 штиль 0 10 км ясно +25.0 +23.5 91 +34 +40 очень
душно
1005.1 985.6 +21.0
06 19.08 штиль 0 10 км ясно +30.5 +22.8 64 +40 +64 опасность
солнечного
удара
1006.2 987.1
09 19.08 СВ 1 10 км ясно +33.0 +24.6 61 +46 +66 опасность
перегрева
1004.1 985.1
12 19.08 штиль 0 10 км ясно +34.0 +24.1 56 +46 +50 опасность
перегрева
1001.9 983.1 +35.0
15 19.08 штиль 0 4000 м ясно +31.0 +25.4 72 +45 +45 опасность
перегрева
1003.4 984.4
18 19.08 штиль 0 4000 м ясно +29.0 +25.5 81 +43 +43 опасность
перегрева
1004.7 985.6
21 19.08 штиль 0 4000 м ясно +27.0 +24.5 86 +38 +38 очень
душно
1003.8 984.6
00 20.08 штиль 0 4000 м ясно +25.0 +22.8 88 +33 +33 очень
душно
1003.7 984.3
03 20.08 штиль 0 10 км ясно +27.0 +22.6 77 +36 +42 очень
душно
1004.7 985.5 +23.1
06 20.08 штиль 0 10 км 5/5 1110 м
[Sc]
+34.0 +24.1 56 +46 +58 опасность
перегрева
1004.8 986.0
09 20.08 ЮВ 1 10 км ясно +36.0 +26.4 58 +53 +73 опасность
перегрева
1003.0 984.3
12 20.08 штиль 0 10 км ясно +37.0 +26.0 53 +52 +56 опасность
перегрева
1000.6 982.0 +39.0
15 20.08 штиль 0 4000 м ясно +34.0 +27.2 68 +53 +53 опасность
перегрева
1000.4 981.6
18 20.08 штиль 0 4000 м ясно +31.0 +28.3 86 +52 +52 опасность
перегрева
1002.5 983.5
21 20.08 штиль 0 4000 м ясно +30.0 +27.3 85 +48 +48 опасность
перегрева
1001.1 982.1
00 21.08 штиль 0 4000 м ясно +28.0 +25.8 88 +42 +42 опасность
перегрева
1001.6 982.5
03 21.08 штиль 0 10 км ясно +30.0 +25.8 78 +45 +51 опасность
перегрева
1000.7 981.7 +25.1
06 21.08 штиль 0 10 км ясно +35.0 +26.8 63 +53 +76 опасность
перегрева
1001.3 982.5
09 21.08 СВ 1 10 км ясно +38.0 +25.6 49 +52 +72 опасность
перегрева
1000.0 981.5
12 21.08 СВ 1 10 км ясно +38.0 +26.4 52 +54 +58 опасность
перегрева
998.1 979.6 +39.0
15 21.08 СЗ 1 4000 м ясно +35.0 +26.8 63 +53 +53 опасность
перегрева
997.9 1000.0
18 21.08 СЗ 1 4000 м ясно +32.5 +26.3 70 +49 +49 опасность
перегрева
999.4 980.5
21 21.08 штиль 0 4000 м дым ясно +30.5 +26.4 79 +47 +47 опасность
перегрева
999.9 1000.0
00 22.08 В 1 4000 м дым ясно +29.5 +26.0 81 +44 +44 опасность
перегрева
999.7 980.6

 

Местоположение метеостанции Дера-Исмаил-Хан (Пакистан): широта 31.82 долгота 70.92 высота над уровнем моря 173 м.

В архиве по умолчанию представлена погода в Дера-Исмаил-Хане за последнюю неделю. Архивные данные за месяц целиком и за предыдущие месяцы, начиная с января 2011 года, Вы можете получить, выбрав интересующий диапазон дат из раскрывающегося списка и нажав кнопку "Ввод!".


*Определитесь, кто Вы:
робот инопланетянин человек

Внимание! Время в таблицах - всемирное. Для получения местного времени необходимо прибавить поправку, которая равна 5 ч.

Смотрите также архив погоды в соседних городах и на ближайших метеорологических станциях:

Погода в Бхаккаре (Пакистан) (26 км)
Погода в Леяхе (Пакистан) (89 км)
Погода в Нур Пур Тал (Пакистан) (93 км)
Погода в Мианвали (Пакистан) (99 км)
Погода в Джанге (Пакистан) (146 км)
Погода в Зхобе (Пакистан) (147 км)
Погода в Банну (Пакистан) (152 км)
Погода в Кот Адду (Пакистан) (152 км)
Погода в Джаухарабаде (Пакистан) (161 км)
Погода в Саргодхе (Пакистан) (167 км)

Пояснения к столбцам:

Ветер - указаны скорость ветра в м/с - средняя за 10 мин, порывы в срок и между сроками (в фигурных скобках) и направление, откуда дует ветер: С - северный, СВ - северо-восточный, В - восточный, ЮВ - юго-восточный, Ю - южный, ЮЗ - юго-западный, З - западный, СЗ - северо-западный.
Видимость - горизонтальная дальность видимости в метрах или километрах. При видимости от 1 до 10 км при отсутствии осадков обычно наблюдается дымка, при ухудшении видимости до 1 км и менее - туман. В сухую погоду видимость может ухудшаться дымом, пылью или мглою.
Явления - указаны атмосферные явления, наблюдавшиеся в срок или в последний час перед сроком; фигурными скобками обозначены явления, наблюдавшиеся между сроками (за 1-3 часа до срока); квадратными скобками обозначены град или гололедные отложения с указанием их диаметра в мм.
Облачность - указаны через наклонную черту общая и нижняя облачность в баллах и высота нижней границы облаков в метрах; квадратными скобками обозначены формы облаков: Ci - перистые, Cs - перисто-слоистые, Cc - перисто-кучевые, Ac - высококучевые, As - высокослоистые, Sc - слоисто-кучевые, Ns - слоисто-дождевые, Cu - кучевые, Cb - кучево-дождевые. Подробнее классификацию облаков см. в Атласе облаков (PDF).
T - Температура воздуха - температура, измеренная на высоте 2 м над землей.
Td - Температура точки росы - температура, при понижении до которой содержащийся в воздухе водяной пар достигнет насыщения.
f - Относительная влажность воздуха - влажноcть воздуха, измеренная на высоте 2 м над землей.
Te - Эффективная температура - температура, которую ощущает одетый по сезону человек в тени. Характеристика душности погоды. При расчете учитывается влияние влажности воздуха и скорости ветра на теплоощущения человека.
Tes - Эффективная температура на солнце - температура, которую ощущает человек, с поправкой на солнечный нагрев. Характеристика знойности погоды. Зависит от высоты солнца над горизонтом, облачности и скорости ветра. Ночью, в пасмурную погоду, а также при ветре 12 м/с и более поправка равна нулю.
P - Атмосферное давление - приведенное к уровню моря атмосферное давление.
Po - Атмосферное давление - измеренное на уровне метеостанции атмосферное давление.
Tmin - Минимальная температура - минимум температуры воздуха на высоте 2 м над землей.
Tmax - Максимальная температура - максимум температуры воздуха на высоте 2 м над землей.
R - Количество осадков - Количество выпавших осадков за период времени, мм. При наведении курсора мыши на число - период времени, за который выпало указанное количество осадков.
R24 - Количество осадков - Количество выпавших осадков за 24 часа, мм.
S - Снежный покров - Высота снежного покрова, см. При наведении курсора мыши на число - состояние снежного покрова и степень покрытия местности в баллах.